| time (UTC) | temp F | wind direction | speed knots | gust knots | rain 1hr in | rain 24hr in | rain mn in | humidity % | barometer mb |
| 20260504082002 | 68 | 232 | 3.5 | 87.8 | 0.00 | 0.00 | 0.00 | 4 | 1007.9 |
| 20260504081002 | 68 | 232 | 3.5 | 546.6 | 0.00 | 0.00 | 0.00 | 4 | 1007.8 |
| 20260504050002 | 56 | 193 | 7.0 | 248.5 | 0.00 | 0.00 | 0.00 | 5 | 1007.0 |
| 20260504045003 | 56 | 193 | 7.0 | 154.7 | 0.00 | 0.00 | 0.00 | 5 | 1006.9 |
| 20260504044002 | 56 | 193 | 7.0 | 96.5 | 0.00 | 0.00 | 0.00 | 5 | 1006.8 |
| 20260504043002 | 56 | 193 | 7.0 | 60.0 | 0.00 | 0.00 | 0.00 | 5 | 1006.8 |
| 20260504042002 | 56 | 193 | 7.0 | 37.4 | 0.00 | 0.00 | 0.00 | 5 | 1006.7 |
| 20260504041002 | 56 | 193 | 7.0 | 37.4 | 0.00 | 0.00 | 0.00 | 5 | 1006.6 |
| 20260504040003 | 57 | 189 | 7.8 | 23.5 | 0.00 | 0.00 | 0.00 | 4 | 1006.7 |
| 20260504035002 | 57 | 189 | 7.8 | 99.9 | 0.00 | 0.00 | 0.00 | 4 | 1006.7 |
| 20260504034002 | 57 | 189 | 7.8 | 99.9 | 0.00 | 0.00 | 0.00 | 4 | 1006.6 |
| 20260504033002 | 57 | 189 | 7.8 | 62.6 | 0.00 | 0.00 | 0.00 | 4 | 1006.6 |
| 20260504032002 | 57 | 189 | 7.8 | 62.6 | 0.00 | 0.00 | 0.00 | 4 | 1006.7 |
| 20260504031002 | 57 | 189 | 7.8 | 39.1 | 0.00 | 0.00 | 0.00 | 4 | 1006.6 |
| 20260504030003 | 57 | 189 | 7.8 | 39.1 | 0.00 | 0.00 | 0.00 | 4 | 1006.6 |
| 20260504025002 | 59 | 185 | 7.8 | 24.3 | 0.00 | 0.00 | 0.00 | 4 | 1006.5 |
| 20260504024002 | 59 | 185 | 7.8 | 24.3 | 0.00 | 0.00 | 0.00 | 4 | 1006.5 |
| 20260504023002 | 59 | 185 | 7.8 | 94.7 | 0.00 | 0.00 | 0.00 | 4 | 1006.5 |
| 20260504022002 | 59 | 185 | 7.8 | 94.7 | 0.00 | 0.00 | 0.00 | 4 | 1006.6 |
| 20260504021002 | 59 | 185 | 7.8 | 94.7 | 0.00 | 0.00 | 0.00 | 4 | 1006.6 |
| 20260504020002 | 59 | 185 | 7.8 | 94.7 | 0.00 | 0.00 | 0.00 | 4 | 1006.4 |
| 20260504015002 | 59 | 183 | 8.7 | 94.7 | 0.00 | 0.00 | 0.00 | 4 | 1006.3 |
| 20260504014001 | 59 | 183 | 8.7 | 94.7 | 0.00 | 0.00 | 0.00 | 4 | 1006.4 |
| 20260504013002 | 59 | 183 | 8.7 | 94.7 | 0.00 | 0.00 | 0.00 | 4 | 1006.2 |
| 20260504012002 | 59 | 183 | 8.7 | 590.9 | 0.00 | 0.00 | 0.00 | 4 | 1006.3 |
| 20260504011003 | 59 | 183 | 8.7 | 590.9 | 0.00 | 0.00 | 0.00 | 4 | 1006.3 |
| 20260504010002 | 59 | 183 | 8.7 | 367.6 | 0.00 | 0.00 | 0.00 | 4 | 1006.1 |
| 20260504005004 | 61 | 183 | 8.7 | 367.6 | 0.00 | 0.00 | 0.00 | 4 | 1006.2 |
| 20260504004003 | 61 | 183 | 8.7 | 228.5 | 0.00 | 0.00 | 0.00 | 4 | 1006.2 |
| 20260504003001 | 61 | 183 | 8.7 | 142.5 | 0.00 | 0.00 | 0.00 | 4 | 1006.2 |
| 20260504002003 | 61 | 183 | 8.7 | 88.6 | 0.00 | 0.00 | 0.00 | 4 | 1006.2 |
| 20260504001002 | 61 | 183 | 8.7 | 55.6 | 0.00 | 0.00 | 0.00 | 4 | 1006.3 |
| 20260504000002 | 61 | 183 | 8.7 | 34.8 | 0.00 | 0.00 | 0.00 | 4 | 1006.4 |
| 20260503235002 | 63 | 186 | 8.7 | 34.8 | 0.00 | 0.00 | 0.00 | 4 | 1006.4 |
| 20260503234002 | 63 | 186 | 8.7 | 34.8 | 0.00 | 0.00 | 0.00 | 4 | 1006.4 |
| 20260503233002 | 63 | 186 | 8.7 | 36.5 | 0.00 | 0.00 | 0.00 | 4 | 1006.4 |
| 20260503232002 | 63 | 186 | 8.7 | 36.5 | 0.00 | 0.00 | 0.00 | 4 | 1006.4 |
| 20260503231002 | 63 | 186 | 8.7 | 36.5 | 0.00 | 0.00 | 0.00 | 4 | 1006.5 |
| 20260503230001 | 63 | 186 | 8.7 | 36.5 | 0.00 | 0.00 | 0.00 | 4 | 1006.7 |
| 20260503225003 | 65 | 194 | 9.6 | 36.5 | 0.00 | 0.00 | 0.00 | 3 | 1006.6 |
| 20260503224002 | 65 | 194 | 9.6 | 36.5 | 0.00 | 0.00 | 0.00 | 3 | 1006.6 |
| 20260503223002 | 65 | 194 | 9.6 | 65.2 | 0.00 | 0.00 | 0.00 | 3 | 1006.6 |
| 20260503222002 | 65 | 194 | 9.6 | 40.8 | 0.00 | 0.00 | 0.00 | 3 | 1006.6 |
| 20260503221002 | 65 | 194 | 9.6 | 118.2 | 0.00 | 0.00 | 0.00 | 3 | 1006.7 |
| 20260503220002 | 65 | 194 | 9.6 | 118.2 | 0.00 | 0.00 | 0.00 | 3 | 1006.8 |
| 20260503215002 | 65 | 194 | 9.6 | 118.2 | 0.00 | 0.00 | 0.00 | 3 | 1006.8 |
| 20260503214002 | 66 | 194 | 8.7 | 118.2 | 0.00 | 0.00 | 0.00 | 3 | 1006.8 |
| 20260503213002 | 66 | 194 | 8.7 | 118.2 | 0.00 | 0.00 | 0.00 | 3 | 1006.7 |
| 20260503212003 | 66 | 194 | 8.7 | 118.2 | 0.00 | 0.00 | 0.00 | 3 | 1006.8 |
| 20260503211003 | 66 | 194 | 8.7 | 118.2 | 0.00 | 0.00 | 0.00 | 3 | 1006.7 |
| 20260503210002 | 66 | 194 | 8.7 | 739.5 | 0.00 | 0.00 | 0.00 | 3 | 1006.8 |
| 20260503205002 | 66 | 194 | 8.7 | 739.5 | 0.00 | 0.00 | 0.00 | 3 | 1006.7 |
| 20260503204002 | 68 | 190 | 8.7 | 459.7 | 0.00 | 0.00 | 0.00 | 3 | 1006.8 |
| 20260503203002 | 68 | 190 | 8.7 | 459.7 | 0.00 | 0.00 | 0.00 | 3 | 1006.8 |
| 20260503202002 | 68 | 190 | 8.7 | 285.9 | 0.00 | 0.00 | 0.00 | 3 | 1006.7 |
| 20260503201002 | 68 | 190 | 8.7 | 178.1 | 0.00 | 0.00 | 0.00 | 3 | 1006.8 |
| 20260503200002 | 68 | 190 | 8.7 | 111.2 | 0.00 | 0.00 | 0.00 | 3 | 1006.8 |
| 20260503195002 | 68 | 190 | 8.7 | 69.5 | 0.00 | 0.00 | 0.00 | 3 | 1006.9 |
| 20260503194002 | 69 | 185 | 8.7 | 69.5 | 0.00 | 0.00 | 0.00 | 3 | 1006.9 |
| 20260503193002 | 69 | 185 | 8.7 | 43.4 | 0.00 | 0.00 | 0.00 | 3 | 1006.8 |
| 20260503192002 | 69 | 185 | 8.7 | 43.4 | 0.00 | 0.00 | 0.00 | 3 | 1006.8 |
| 20260503191002 | 69 | 185 | 8.7 | 43.4 | 0.00 | 0.00 | 0.00 | 3 | 1006.8 |
| 20260503190002 | 69 | 185 | 8.7 | 43.4 | 0.00 | 0.00 | 0.00 | 3 | 1006.7 |
| 20260503185002 | 69 | 185 | 8.7 | 43.4 | 0.00 | 0.00 | 0.00 | 3 | 1006.6 |
| 20260503184003 | 72 | 182 | 7.0 | 43.4 | 0.00 | 0.00 | 0.00 | 3 | 1006.6 |
| 20260503183002 | 72 | 182 | 7.0 | 33.9 | 0.00 | 0.00 | 0.00 | 3 | 1006.5 |
| 20260503182002 | 72 | 182 | 7.0 | 33.9 | 0.00 | 0.00 | 0.00 | 3 | 1006.4 |
| 20260503181003 | 72 | 182 | 7.0 | 33.9 | 0.00 | 0.00 | 0.00 | 3 | 1006.4 |
| 20260503180004 | 72 | 182 | 7.0 | 33.9 | 0.00 | 0.00 | 0.00 | 3 | 1006.3 |
| 20260503175002 | 72 | 182 | 7.0 | 33.9 | 0.00 | 0.00 | 0.00 | 3 | 1006.3 |
| 20260503174003 | 75 | 183 | 7.0 | 33.9 | 0.00 | 0.00 | 0.00 | 2 | 1006.3 |
| 20260503173002 | 75 | 183 | 7.0 | 30.4 | 0.00 | 0.00 | 0.00 | 2 | 1006.3 |
| 20260503172003 | 75 | 183 | 7.0 | 30.4 | 0.00 | 0.00 | 0.00 | 2 | 1006.3 |
| 20260503171002 | 75 | 183 | 7.0 | 30.4 | 0.00 | 0.00 | 0.00 | 2 | 1006.3 |
| 20260503151002 | 77 | 188 | 8.7 | 18.2 | 0.00 | 0.00 | 0.00 | 2 | 1006.9 |
| 20260503131003 | 78 | 193 | 7.0 | 258.1 | 0.00 | 0.00 | 0.00 | 2 | 1008.2 |